period_start,C,m1,H,J0,J1,J2,J3,J4,J5,JA,JB,JC,JD,JJ,JK,JN,#
2018-04-08 00:03:29,0.17,6.13,0.00,28.47,31.38,34.20,13.78,48.34,1023.94,2004.60,1716.46,1829.59,2106.49,599.74,589.19,33.60,0000 0000 0000 0000 000000
2018-04-08 00:08:31,0.16,6.14,0.00,28.47,31.37,34.19,13.74,48.43,1023.94,2004.81,1715.06,1828.74,2105.43,600.16,589.65,33.65,0000 0000 0000 0000 000000
2018-04-08 00:13:32,0.15,6.15,0.00,28.48,31.37,34.18,13.78,48.38,1023.94,2004.92,1713.79,1827.83,2104.47,600.16,589.54,33.70,0000 0000 0000 0000 000000
2018-04-08 00:18:33,0.16,6.16,0.00,28.48,31.37,34.17,13.79,48.33,1023.94,2004.96,1712.41,1826.85,2103.29,600.07,589.50,33.75,0000 0000 0000 0000 000000
2018-04-08 00:23:35,0.23,6.17,0.00,28.48,31.35,34.18,13.71,48.43,1023.94,2004.96,1710.39,1825.60,2101.91,599.79,589.23,33.80,0000 0000 0000 0000 000000
2018-04-08 00:28:36,0.35,6.18,0.00,28.50,31.35,34.13,13.80,48.44,1023.94,2004.98,1707.23,1823.84,2099.89,600.10,589.43,33.85,0000 0000 0000 0000 000000
2018-04-08 00:33:37,0.17,6.20,0.00,28.51,31.35,34.12,13.74,48.46,1023.94,2004.98,1705.24,1822.55,2098.46,599.86,589.09,33.90,0000 0000 0000 0000 000000
2018-04-08 00:38:38,0.18,6.20,0.00,28.52,31.35,34.12,13.74,48.48,1023.94,2004.99,1703.56,1821.49,2097.14,599.81,589.18,33.95,0000 0000 0000 0000 000000
2018-04-08 00:43:39,0.20,6.22,0.00,28.54,31.34,34.13,13.79,48.37,1023.94,2004.98,1701.72,1820.29,2095.72,600.24,589.54,34.00,0000 0000 0000 0000 000000
2018-04-08 00:48:41,0.16,6.23,0.00,28.56,31.34,34.10,13.73,48.48,1023.94,2004.99,1700.05,1819.15,2094.51,599.90,589.18,34.06,0000 0000 0000 0000 000000
2018-04-08 00:53:42,0.17,6.23,0.00,28.55,31.33,34.11,13.74,48.37,1023.94,2004.99,1698.53,1818.12,2093.33,600.28,589.66,34.11,0000 0000 0000 0000 000000
2018-04-08 00:58:43,0.22,6.24,0.00,28.58,31.33,34.11,13.73,48.40,1023.94,2004.99,1696.68,1816.93,2091.90,600.17,589.37,34.16,0000 0000 0000 0000 000000
2018-04-08 01:03:44,0.33,6.26,0.00,28.60,31.33,34.10,13.82,48.37,1023.94,2004.99,1693.49,1815.26,2089.95,600.48,589.52,34.21,0000 0000 0000 0000 000000
2018-04-08 01:08:45,0.47,6.28,0.00,28.63,31.34,34.10,13.75,48.31,1023.94,2004.99,1689.13,1812.89,2087.26,600.38,589.50,34.26,0000 0000 0000 0000 000000
2018-04-08 01:13:46,0.29,6.30,0.00,28.64,31.35,34.11,13.74,48.42,1023.94,2004.99,1685.79,1811.01,2085.10,600.08,589.18,34.31,0000 0000 0000 0000 000000
2018-04-08 01:18:47,0.31,6.31,0.00,28.64,31.35,34.11,13.68,48.39,1023.94,2004.99,1682.91,1809.37,2083.23,599.83,589.04,34.36,0000 0000 0000 0000 000000
2018-04-08 01:23:49,0.33,6.33,0.00,28.67,31.35,34.10,13.69,48.27,1023.94,2004.99,1679.50,1807.41,2081.03,599.92,588.98,34.41,0000 0000 0000 0000 000000
2018-04-08 01:28:50,0.19,6.34,0.00,28.70,31.35,34.12,13.77,48.49,1023.94,2005.00,1677.58,1806.20,2079.59,600.13,589.04,34.46,0000 0000 0000 0000 000000
2018-04-08 01:33:52,0.15,6.35,0.00,28.71,31.36,34.11,13.72,48.40,1023.94,2005.00,1676.16,1805.17,2078.43,599.96,589.04,34.51,0000 0000 0000 0000 000000
2018-04-08 01:38:53,0.17,6.36,0.00,28.73,31.37,34.12,13.70,48.43,1023.94,2005.00,1674.71,1804.25,2077.34,599.84,588.80,34.56,0000 0000 0000 0000 000000
2018-04-08 01:43:54,0.15,6.37,0.00,28.75,31.37,34.13,13.68,48.36,1023.94,2005.00,1673.44,1803.24,2076.18,600.13,588.97,34.61,0000 0000 0000 0000 000000
2018-04-08 01:48:55,0.16,6.38,0.00,28.77,31.37,34.14,13.76,48.44,1023.94,2005.00,1671.94,1802.19,2074.98,600.34,589.18,34.66,0000 0000 0000 0000 000000
2018-04-08 01:53:56,0.17,6.39,0.00,28.79,31.39,34.14,13.73,48.36,1023.94,2004.98,1670.49,1801.11,2073.76,600.06,588.88,34.71,0000 0000 0000 0000 000000
2018-04-08 01:58:58,0.17,6.40,0.00,28.79,31.40,34.16,13.71,48.47,1023.93,2004.98,1668.92,1800.06,2072.52,599.81,588.60,34.76,0000 0000 0000 0000 000000
2018-04-08 02:03:59,0.18,6.40,0.00,28.86,31.40,34.17,13.77,48.48,1023.91,2004.96,1667.43,1798.97,2071.29,600.42,589.01,34.81,0000 0000 0000 0000 000000
2018-04-08 02:09:00,0.21,6.41,0.00,28.87,31.42,34.18,13.75,48.44,1023.89,2004.97,1665.78,1797.76,2069.86,600.19,588.81,34.86,0000 0000 0000 0000 000000
2018-04-08 02:14:01,0.20,6.42,0.00,28.89,31.42,34.18,13.74,48.54,1023.73,2004.95,1664.02,1796.60,2068.53,600.12,588.49,34.91,0000 0000 0000 0000 000000
2018-04-08 02:19:02,0.16,6.43,0.00,28.92,31.44,34.20,13.71,48.44,1023.59,2004.90,1662.52,1795.44,2067.14,600.11,588.50,34.97,0000 0000 0000 0000 000000
2018-04-08 02:24:03,0.17,6.44,0.00,28.96,31.45,34.22,13.69,48.48,1023.61,2004.78,1661.02,1794.27,2065.79,600.00,588.31,35.02,0000 0000 0000 0000 000000
2018-04-08 02:29:05,0.16,6.45,0.00,28.99,31.47,34.24,13.76,48.43,1023.61,2004.68,1659.55,1793.19,2064.56,600.17,588.56,35.07,0000 0000 0000 0000 000000
2018-04-08 02:34:06,0.16,6.46,0.00,29.01,31.48,34.24,13.70,48.46,1023.51,2004.51,1657.80,1792.06,2063.24,599.67,587.82,35.12,0000 0000 0000 0000 000000
2018-04-08 02:39:07,0.15,6.47,0.00,29.04,31.50,34.25,13.69,48.36,1023.52,2004.21,1656.27,1790.92,2061.88,599.79,587.94,35.17,0000 0000 0000 0000 000000
2018-04-08 02:44:08,0.17,6.48,0.00,29.08,31.51,34.28,13.68,48.47,1023.50,2004.14,1654.71,1789.87,2060.59,599.58,587.60,35.22,0000 0000 0000 0000 000000
2018-04-08 02:49:09,0.26,6.49,0.00,29.10,31.52,34.31,13.69,48.46,1023.53,2004.11,1652.52,1788.40,2058.89,599.91,587.84,35.27,0000 0000 0000 0000 000000
2018-04-08 02:54:11,0.36,6.50,0.00,29.14,31.54,34.31,13.62,48.43,1023.58,2004.03,1649.36,1786.35,2056.55,599.87,587.82,35.32,0000 0000 0000 0000 000000
2018-04-08 02:59:12,0.35,6.52,0.00,29.16,31.56,34.32,13.72,48.37,1023.49,2004.00,1646.14,1784.35,2054.22,600.02,587.72,35.37,0000 0000 0000 0000 000000
2018-04-08 03:04:13,0.29,6.54,0.00,29.19,31.57,34.33,13.76,48.45,1023.48,2004.00,1643.51,1782.62,2052.25,600.34,588.09,35.42,0000 0000 0000 0000 000000
2018-04-08 03:09:15,0.24,6.55,0.00,29.24,31.60,34.38,13.64,48.42,1023.49,2004.00,1641.19,1781.00,2050.46,599.81,587.55,35.47,0000 0000 0000 0000 000000
2018-04-08 03:14:16,0.25,6.57,0.00,29.27,31.62,34.39,13.74,48.39,1023.48,2004.00,1639.11,1779.61,2048.81,600.01,587.63,35.52,0000 0000 0000 0000 000000
2018-04-08 03:19:17,0.20,6.58,0.00,29.30,31.64,34.39,13.65,48.48,1023.46,2004.00,1637.19,1778.24,2047.28,600.07,587.62,35.57,0000 0000 0000 0000 000000
2018-04-08 03:24:19,0.25,6.59,0.00,29.32,31.66,34.42,13.75,48.51,1023.47,2003.99,1635.20,1776.77,2045.83,600.10,587.57,35.62,0000 0000 0000 0000 000000
2018-04-08 03:29:20,0.22,6.60,0.00,29.35,31.68,34.44,13.73,48.49,1023.46,2003.95,1633.34,1775.45,2044.18,600.20,587.65,35.67,0000 0000 0000 0000 000000
2018-04-08 03:34:22,0.16,6.61,0.00,29.40,31.70,34.47,13.64,48.49,1023.46,2003.80,1631.74,1774.14,2042.67,599.91,587.39,35.72,0000 0000 0000 0000 000000
2018-04-08 03:39:23,0.16,6.62,0.00,29.45,31.72,34.50,13.65,48.43,1023.45,2003.59,1630.36,1772.96,2041.40,600.23,587.42,35.77,0000 0000 0000 0000 000000
2018-04-08 03:44:24,0.11,6.63,0.00,29.49,31.75,34.52,13.62,48.37,1023.45,2003.38,1628.98,1771.95,2040.14,600.08,587.22,35.82,0000 0000 0000 0000 000000
2018-04-08 03:49:25,0.20,6.63,0.00,29.52,31.76,34.54,13.76,48.27,1023.45,2003.08,1627.61,1770.76,2038.77,600.34,587.40,35.88,0000 0000 0000 0000 000000
2018-04-08 03:54:26,0.16,6.64,0.00,29.56,31.79,34.54,13.66,48.30,1023.45,2003.01,1626.33,1769.66,2037.45,599.90,586.94,35.93,0000 0000 0000 0000 000000
2018-04-08 03:59:27,0.18,6.65,0.00,29.59,31.81,34.59,13.68,48.33,1023.45,2003.00,1624.92,1768.55,2036.15,599.80,586.83,35.98,0000 0000 0000 0000 000000
2018-04-08 04:04:29,0.19,6.66,0.00,29.62,31.82,34.61,13.62,48.32,1023.45,2003.00,1623.58,1767.37,2034.66,599.87,586.72,36.03,0000 0000 0000 0000 000000
2018-04-08 04:09:30,0.16,6.67,0.00,29.65,31.85,34.62,13.62,48.36,1023.45,2003.00,1622.31,1766.19,2033.35,599.78,586.71,36.08,0000 0000 0000 0000 000000
2018-04-08 04:14:31,0.19,6.68,0.00,29.68,31.87,34.67,13.68,48.39,1023.45,2003.00,1620.88,1765.02,2031.93,600.36,587.14,36.13,0000 0000 0000 0000 000000
2018-04-08 04:19:32,0.21,6.69,0.00,29.71,31.88,34.71,13.67,48.38,1023.45,2002.98,1619.55,1763.79,2030.50,599.96,586.66,36.18,0000 0000 0000 0000 000000
2018-04-08 04:24:33,0.21,6.70,0.00,29.73,31.90,34.73,13.67,48.40,1023.45,2002.93,1618.00,1762.46,2028.88,599.97,586.54,36.23,0000 0000 0000 0000 000000
2018-04-08 04:29:35,0.21,6.71,0.00,29.76,31.92,34.75,13.58,48.26,1023.45,2002.90,1616.32,1761.06,2027.25,599.74,586.42,36.28,0000 0000 0000 0000 000000
2018-04-08 04:34:36,0.21,6.72,0.00,29.78,31.95,34.79,13.59,48.35,1023.45,2002.68,1614.58,1759.69,2025.54,600.07,586.65,36.33,0000 0000 0000 0000 000000
2018-04-08 04:39:38,0.13,6.73,0.00,29.79,31.96,34.80,13.75,48.32,1023.45,2002.31,1613.00,1758.34,2024.03,600.18,586.63,36.38,0000 0000 0000 0000 000000
2018-04-08 04:44:39,0.18,6.74,0.00,29.82,31.99,34.82,13.58,48.28,1023.45,2002.09,1611.59,1757.16,2022.65,599.56,586.11,36.43,0000 0000 0000 0000 000000
2018-04-08 04:49:40,0.19,6.75,0.00,29.83,32.01,34.86,13.71,48.25,1023.45,2002.04,1609.95,1755.93,2021.25,600.13,586.61,36.48,0000 0000 0000 0000 000000
2018-04-08 04:54:41,0.16,6.76,0.00,29.85,32.02,34.87,13.72,48.29,1023.45,2002.01,1608.70,1754.89,2019.95,600.18,586.67,36.53,0000 0000 0000 0000 000000
2018-04-08 04:59:43,0.18,6.77,0.00,29.87,32.05,34.90,13.66,48.23,1023.47,2002.00,1607.43,1753.85,2018.72,600.00,586.37,36.58,0000 0000 0000 0000 000000
2018-04-08 05:04:44,0.15,6.77,0.00,29.86,32.07,34.93,13.66,48.19,1023.48,2002.00,1606.22,1752.85,2017.55,600.27,586.79,36.63,0000 0000 0000 0000 000000
2018-04-08 05:09:45,0.16,6.78,0.00,29.86,32.09,34.95,13.59,48.29,1023.48,2001.99,1604.89,1751.83,2016.39,599.74,586.27,36.68,0000 0000 0000 0000 000000
2018-04-08 05:14:47,0.15,6.79,0.00,29.90,32.11,35.00,13.70,48.33,1023.47,2001.98,1603.66,1750.92,2015.32,599.92,586.35,36.73,0000 0000 0000 0000 000000
2018-04-08 05:19:48,0.15,6.80,0.00,29.89,32.13,35.01,13.70,48.27,1023.47,2001.94,1602.50,1750.00,2014.15,600.30,586.67,36.78,0000 0000 0000 0000 000000
2018-04-08 05:24:49,0.12,6.81,0.00,29.91,32.15,35.01,13.59,48.28,1023.46,2001.80,1601.40,1749.07,2013.08,599.84,586.13,36.84,0000 0000 0000 0000 000000
2018-04-08 05:29:50,0.11,6.81,0.00,29.92,32.17,35.05,13.67,48.31,1023.45,2001.40,1599.99,1748.07,2011.90,599.84,586.20,36.89,0000 0000 0000 0000 000000
2018-04-08 05:34:51,0.17,6.82,0.00,29.93,32.20,35.06,13.65,48.37,1023.45,2001.15,1598.69,1746.98,2010.64,600.38,586.61,36.94,0000 0000 0000 0000 000000
2018-04-08 05:39:53,0.17,6.83,0.00,29.94,32.21,35.10,13.72,48.37,1023.45,2001.07,1597.20,1745.85,2009.37,600.05,586.32,36.99,0000 0000 0000 0000 000000
2018-04-08 05:44:54,0.21,6.84,0.00,29.94,32.22,35.13,13.64,48.23,1023.45,2001.03,1595.58,1744.66,2007.96,599.85,586.12,37.04,0000 0000 0000 0000 000000
2018-04-08 05:49:55,0.16,6.85,0.00,29.95,32.25,35.13,13.69,48.27,1023.45,2001.00,1594.17,1743.65,2006.71,599.93,586.18,37.09,0000 0000 0000 0000 000000
2018-04-08 05:54:56,0.14,6.86,0.00,29.96,32.26,35.15,13.66,48.35,1023.45,2001.00,1593.01,1742.77,2005.71,600.16,586.29,37.14,0000 0000 0000 0000 000000
2018-04-08 05:59:58,0.18,6.86,0.00,29.95,32.27,35.16,13.72,48.32,1023.45,2001.00,1591.73,1741.76,2004.53,600.25,586.47,37.19,0000 0000 0000 0000 000000
2018-04-08 06:04:59,0.14,6.87,0.00,29.95,32.30,35.21,13.59,48.24,1023.45,2001.00,1590.51,1740.88,2003.48,599.94,586.23,37.24,0000 0000 0000 0000 000000
2018-04-08 06:10:01,0.13,6.88,0.00,29.96,32.31,35.19,13.70,48.31,1023.45,2000.98,1589.45,1740.01,2002.47,600.05,586.38,37.29,0000 0000 0000 0000 000000
2018-04-08 06:15:02,0.15,6.89,0.00,29.95,32.32,35.22,13.67,48.32,1023.45,2000.98,1588.22,1739.10,2001.38,599.90,586.25,37.34,0000 0000 0000 0000 000000
2018-04-08 06:20:03,0.13,6.90,0.00,29.95,32.34,35.23,13.58,48.33,1023.45,2000.91,1587.18,1738.23,2000.45,600.15,586.40,37.39,0000 0000 0000 0000 000000
2018-04-08 06:25:04,0.09,6.90,0.00,29.95,32.35,35.23,13.64,48.27,1023.45,2000.87,1586.37,1737.74,1999.81,600.05,586.26,37.44,0000 0000 0000 0000 000000
2018-04-08 06:30:05,0.14,6.91,0.00,29.94,32.36,35.26,13.62,48.23,1023.46,2000.83,1585.14,1736.82,1998.73,600.13,586.47,37.49,0000 0000 0000 0000 000000
2018-04-08 06:35:07,0.14,6.91,0.00,29.94,32.37,35.27,13.71,48.22,1023.47,2000.64,1583.81,1735.90,1997.69,600.28,586.66,37.54,0000 0000 0000 0000 000000
2018-04-08 06:40:08,0.13,6.92,0.00,29.92,32.39,35.27,13.60,48.23,1023.46,2000.46,1582.54,1734.95,1996.61,600.03,586.29,37.59,0000 0000 0000 0000 000000
2018-04-08 06:45:10,0.11,6.93,0.00,29.92,32.40,35.28,13.64,48.22,1023.47,2000.11,1581.39,1734.07,1995.60,599.81,586.16,37.64,0000 0000 0000 0000 000000
2018-04-08 06:50:11,0.14,6.93,0.00,29.92,32.40,35.31,13.65,48.17,1023.47,2000.09,1580.24,1733.28,1994.60,599.98,586.34,37.69,0000 0000 0000 0000 000000
2018-04-08 06:55:12,0.13,6.94,0.00,29.92,32.41,35.27,13.72,48.13,1023.49,2000.02,1579.12,1732.48,1993.71,600.19,586.41,37.75,0000 0000 0000 0000 000000
2018-04-08 07:00:13,0.14,6.95,0.00,29.92,32.42,35.29,13.69,48.11,1023.50,2000.01,1577.96,1731.69,1992.76,600.01,586.36,37.80,0000 0000 0000 0000 000000
2018-04-08 07:05:15,0.14,6.96,0.00,29.92,32.42,35.29,13.66,48.17,1023.49,2000.00,1576.78,1730.85,1991.77,600.08,586.43,37.85,0000 0000 0000 0000 000000
2018-04-08 07:10:16,0.13,6.96,0.00,29.91,32.44,35.32,13.67,48.20,1023.47,2000.00,1575.75,1730.02,1990.82,600.13,586.49,37.90,0000 0000 0000 0000 000000
2018-04-08 07:15:18,0.12,6.97,0.00,29.92,32.45,35.32,13.65,48.11,1023.48,2000.00,1574.86,1729.17,1990.01,600.19,586.41,37.95,0000 0000 0000 0000 000000
2018-04-08 07:20:19,0.10,6.97,0.00,29.92,32.45,35.30,13.74,48.20,1023.49,2000.00,1574.03,1728.73,1989.16,600.20,586.60,38.00,0000 0000 0000 0000 000000
2018-04-08 07:25:20,0.11,6.98,0.00,29.91,32.45,35.32,13.64,48.17,1023.50,2000.00,1573.24,1728.03,1988.50,599.89,586.30,38.05,0000 0000 0000 0000 000000
2018-04-08 07:30:22,0.10,6.98,0.00,29.91,32.46,35.33,13.70,48.21,1023.61,2000.00,1572.44,1727.55,1987.90,600.28,586.70,38.10,0000 0000 0000 0000 000000
2018-04-08 07:35:23,0.07,6.99,0.00,29.91,32.47,35.33,13.68,48.18,1023.74,2000.00,1571.80,1727.01,1987.09,599.95,586.51,38.15,0000 0000 0000 0000 000000
2018-04-08 07:40:24,0.11,6.99,0.00,29.91,32.47,35.35,13.61,48.16,1023.90,1999.99,1570.99,1726.50,1986.49,599.83,586.46,38.20,0000 0000 0000 0000 000000
2018-04-08 07:45:25,0.07,7.00,0.00,29.91,32.48,35.35,13.68,48.13,1023.93,1999.99,1570.19,1726.00,1985.86,600.06,586.70,38.25,0000 0000 0000 0000 000000
2018-04-08 07:50:27,0.13,7.01,0.00,29.92,32.50,35.36,13.66,48.13,1023.94,1999.99,1569.39,1725.25,1985.06,599.94,586.61,38.30,0000 0000 0000 0000 000000
2018-04-08 07:55:28,0.07,7.01,0.00,29.91,32.50,35.34,13.65,48.17,1023.94,1999.98,1568.73,1724.85,1984.41,599.99,586.66,38.35,0000 0000 0000 0000 000000
2018-04-08 08:00:29,0.09,7.02,0.00,29.91,32.50,35.36,13.72,48.09,1023.94,1999.96,1567.94,1724.08,1983.86,600.13,586.69,38.40,0000 0000 0000 0000 000000
2018-04-08 08:05:31,0.11,7.02,0.00,29.90,32.51,35.34,13.67,48.13,1023.94,1999.92,1567.04,1723.61,1983.07,600.06,586.71,38.45,0000 0000 0000 0000 000000
2018-04-08 08:10:32,0.11,7.03,0.00,29.88,32.52,35.34,13.61,48.15,1023.92,1999.93,1566.13,1722.96,1982.42,599.91,586.65,38.50,0000 0000 0000 0000 000000
2018-04-08 08:15:33,0.13,7.03,0.00,29.89,32.52,35.35,13.70,48.14,1023.91,1999.92,1565.09,1722.15,1981.69,600.01,586.58,38.55,0000 0000 0000 0000 000000
2018-04-08 08:20:35,0.09,7.04,0.00,29.89,32.52,35.34,13.70,48.17,1023.92,1999.90,1564.32,1721.75,1980.97,599.91,586.56,38.60,0000 0000 0000 0000 000000
2018-04-08 08:25:36,0.11,7.04,0.00,29.90,32.52,35.34,13.64,48.07,1023.91,1999.87,1563.49,1721.03,1980.17,600.03,586.71,38.66,0000 0000 0000 0000 000000
2018-04-08 08:30:37,0.14,7.05,0.00,29.88,32.52,35.33,13.63,48.09,1023.76,1999.86,1562.46,1720.30,1979.33,599.95,586.54,38.71,0000 0000 0000 0000 000000
2018-04-08 08:35:39,0.15,7.06,0.00,29.87,32.52,35.36,13.69,48.13,1023.69,1999.88,1561.18,1719.49,1978.31,599.87,586.56,38.76,0000 0000 0000 0000 000000
2018-04-08 08:40:40,0.15,7.07,0.00,29.86,32.53,35.33,13.71,48.13,1023.76,1999.66,1559.74,1718.39,1977.09,600.19,586.82,38.81,0000 0000 0000 0000 000000
2018-04-08 08:45:41,0.17,7.07,0.00,29.85,32.53,35.36,13.75,48.17,1023.62,1999.48,1558.35,1717.42,1975.91,600.39,586.94,38.86,0000 0000 0000 0000 000000
2018-04-08 08:50:43,0.15,7.08,0.00,29.86,32.53,35.35,13.62,48.04,1023.48,1999.42,1556.95,1716.44,1974.77,599.84,586.43,38.91,0000 0000 0000 0000 000000
2018-04-08 08:55:45,0.11,7.09,0.00,29.84,32.54,35.36,13.69,48.15,1023.47,1999.31,1555.89,1715.64,1973.90,600.14,586.59,38.96,0000 0000 0000 0000 000000
2018-04-08 09:00:46,0.09,7.10,0.00,29.85,32.54,35.34,13.73,48.17,1023.47,1999.23,1555.05,1715.02,1973.09,599.97,586.36,39.01,0000 0000 0000 0000 000000
2018-04-08 09:05:48,0.11,7.10,0.00,29.85,32.54,35.36,13.65,48.07,1023.46,1999.13,1554.29,1714.50,1972.47,600.04,586.53,39.06,0000 0000 0000 0000 000000
2018-04-08 09:10:49,0.08,7.10,0.00,29.83,32.53,35.35,13.76,48.17,1023.47,1999.16,1553.61,1714.01,1971.97,600.34,586.83,39.11,0000 0000 0000 0000 000000
2018-04-08 09:15:50,0.10,7.11,0.00,29.83,32.53,35.35,13.68,48.27,1023.47,1999.23,1552.89,1713.47,1971.20,600.31,586.90,39.16,0000 0000 0000 0000 000000
2018-04-08 09:20:52,0.07,7.11,0.00,29.81,32.53,35.37,13.70,48.19,1023.48,1999.14,1552.07,1712.99,1970.69,599.98,586.38,39.21,0000 0000 0000 0000 000000
2018-04-08 09:25:53,0.12,7.12,0.00,29.79,32.52,35.34,13.69,48.23,1023.50,1999.13,1551.30,1712.38,1970.02,600.06,586.63,39.26,0000 0000 0000 0000 000000
2018-04-08 09:30:55,0.08,7.12,0.00,29.77,32.52,35.35,13.74,48.13,1023.50,1999.14,1550.57,1711.99,1969.32,600.30,586.85,39.31,0000 0000 0000 0000 000000
2018-04-08 09:35:56,0.09,7.13,0.00,29.75,32.52,35.35,13.76,48.09,1023.50,1999.14,1549.88,1711.37,1968.84,600.28,586.97,39.36,0000 0000 0000 0000 000000
2018-04-08 09:40:58,0.09,7.13,0.00,29.74,32.52,35.33,13.68,48.10,1023.52,1999.18,1549.05,1710.97,1968.06,599.85,586.50,39.41,0000 0000 0000 0000 000000
2018-04-08 09:45:59,0.13,7.14,0.00,29.73,32.52,35.33,13.63,48.14,1023.50,1999.24,1548.23,1710.27,1967.60,599.79,586.62,39.46,0000 0000 0000 0000 000000
2018-04-08 09:51:00,0.08,7.14,0.00,29.72,32.51,35.34,13.75,48.23,1023.51,1999.24,1547.47,1709.90,1966.93,600.01,586.76,39.51,0000 0000 0000 0000 000000
2018-04-08 09:56:01,0.12,7.15,0.00,29.71,32.50,35.36,13.76,48.30,1023.59,1999.39,1546.77,1709.12,1966.11,600.24,587.12,39.57,0000 0000 0000 0000 000000
2018-04-08 10:01:02,0.11,7.16,0.00,29.70,32.50,35.32,13.72,48.31,1023.72,1999.46,1545.94,1708.75,1965.53,599.89,586.72,39.62,0000 0000 0000 0000 000000
2018-04-08 10:06:04,0.10,7.16,0.00,29.67,32.50,35.35,13.63,48.17,1023.60,1999.43,1545.06,1708.04,1964.90,599.54,586.43,39.67,0000 0000 0000 0000 000000
2018-04-08 10:11:05,0.15,7.17,0.00,29.66,32.48,35.39,13.69,48.21,1023.73,1999.64,1544.21,1707.61,1964.09,599.79,586.79,39.72,0000 0000 0000 0000 000000
2018-04-08 10:16:06,0.11,7.17,0.00,29.62,32.47,35.33,13.71,48.05,1023.65,1999.84,1543.51,1707.01,1963.63,599.90,586.95,39.77,0000 0000 0000 0000 000000
2018-04-08 10:21:08,0.16,7.18,0.00,29.60,32.46,35.35,13.70,48.19,1023.50,1999.92,1542.39,1706.29,1962.67,600.13,587.14,39.82,0000 0000 0000 0000 000000
2018-04-08 10:26:09,0.23,7.19,0.00,29.58,32.45,35.34,13.64,48.22,1023.48,1999.94,1540.55,1705.07,1961.29,599.68,586.70,39.87,0000 0000 0000 0000 000000
2018-04-08 10:31:10,0.28,7.21,0.00,29.54,32.45,35.32,13.74,48.35,1023.47,1999.95,1538.43,1703.62,1959.65,600.03,587.08,39.92,0000 0000 0000 0000 000000
2018-04-08 10:36:12,0.21,7.22,0.00,29.52,32.43,35.33,13.70,48.26,1023.46,1999.98,1536.68,1702.51,1958.32,600.00,587.09,39.97,0000 0000 0000 0000 000000
2018-04-08 10:41:13,0.17,7.23,0.00,29.50,32.42,35.35,13.66,48.23,1023.47,1999.98,1535.23,1701.46,1957.13,599.51,586.74,40.02,0000 0000 0000 0000 000000
2018-04-08 10:46:14,0.22,7.24,0.00,29.48,32.40,35.32,13.71,48.21,1023.47,1999.99,1533.61,1700.33,1955.78,600.62,587.84,40.07,0000 0000 0000 0000 000000
2018-04-08 10:51:15,0.22,7.25,0.00,29.45,32.40,35.32,13.67,48.24,1023.46,1999.99,1531.76,1699.10,1954.42,599.85,587.13,40.12,0000 0000 0000 0000 000000
2018-04-08 10:56:17,0.28,7.26,0.00,29.45,32.38,35.36,13.74,48.28,1023.46,1999.99,1529.72,1697.70,1952.79,600.10,587.39,40.17,0000 0000 0000 0000 000000
2018-04-08 11:01:18,0.23,7.28,0.00,29.41,32.37,35.35,13.75,48.23,1023.45,1999.99,1527.83,1696.48,1951.41,599.90,587.19,40.22,0000 0000 0000 0000 000000
2018-04-08 11:06:19,0.24,7.29,0.00,29.38,32.35,35.35,13.76,48.37,1023.46,1999.99,1525.89,1695.22,1949.86,600.24,587.62,40.27,0000 0000 0000 0000 000000
2018-04-08 11:11:20,0.20,7.30,0.00,29.35,32.34,35.37,13.69,48.23,1023.46,1999.99,1524.16,1694.03,1948.56,599.96,587.40,40.32,0000 0000 0000 0000 000000
2018-04-08 11:16:21,0.16,7.31,0.00,29.33,32.32,35.33,13.69,48.29,1023.45,2000.01,1522.82,1693.10,1947.54,599.73,587.31,40.37,0000 0000 0000 0000 000000
2018-04-08 11:21:23,0.10,7.32,0.00,29.30,32.31,35.30,13.63,48.34,1023.45,2000.04,1521.97,1692.65,1946.91,599.94,587.49,40.42,0000 0000 0000 0000 000000
2018-04-08 11:26:24,0.11,7.32,0.00,29.28,32.30,35.31,13.73,48.29,1023.45,2000.10,1521.10,1692.01,1946.11,600.20,587.84,40.48,0000 0000 0000 0000 000000
2018-04-08 11:31:25,0.16,7.33,0.00,29.26,32.28,35.33,13.78,48.28,1023.45,2000.22,1520.20,1691.36,1945.47,600.10,587.72,40.53,0000 0000 0000 0000 000000
2018-04-08 11:36:26,0.17,7.34,0.00,29.24,32.27,35.31,13.76,48.20,1023.45,2000.40,1519.13,1690.65,1944.60,599.95,587.74,40.58,0000 0000 0000 0000 000000
2018-04-08 11:41:28,0.11,7.34,0.00,29.22,32.25,35.29,13.72,48.29,1023.44,2000.56,1518.05,1690.00,1943.86,600.24,587.86,40.63,0000 0000 0000 0000 000000
2018-04-08 11:46:29,0.18,7.35,0.00,29.20,32.23,35.29,13.64,48.33,1023.42,2000.87,1517.23,1689.37,1943.07,599.56,587.36,40.68,0000 0000 0000 0000 000000
2018-04-08 11:51:31,0.08,7.36,0.00,29.16,32.22,35.25,13.80,48.34,1023.41,2000.94,1516.41,1688.98,1942.51,600.38,588.13,40.73,0000 0000 0000 0000 000000
2018-04-08 11:56:32,0.10,7.36,0.00,29.13,32.20,35.24,13.70,48.23,1023.24,2000.98,1515.77,1688.34,1942.00,599.80,587.62,40.78,0000 0000 0000 0000 000000
2018-04-08 12:01:33,0.08,7.37,0.00,29.11,32.18,35.21,13.66,48.22,1023.07,2000.99,1514.94,1687.99,1941.30,599.85,587.74,40.83,0000 0000 0000 0000 000000
2018-04-08 12:06:34,0.11,7.37,0.00,29.10,32.16,35.21,13.69,48.25,1022.99,2000.99,1514.12,1687.41,1940.88,600.14,587.73,40.88,0000 0000 0000 0000 000000
2018-04-08 12:11:36,0.09,7.38,0.00,29.07,32.14,35.16,13.79,48.32,1022.97,2000.99,1513.42,1687.00,1940.08,600.12,587.93,40.93,0000 0000 0000 0000 000000
2018-04-08 12:16:37,0.08,7.38,0.00,29.03,32.12,35.15,13.75,48.26,1022.97,2000.99,1512.87,1686.46,1939.74,599.90,587.66,40.98,0000 0000 0000 0000 000000
2018-04-08 12:21:38,0.08,7.39,0.00,28.99,32.10,35.13,13.69,48.33,1022.97,2000.99,1512.10,1686.02,1939.05,599.93,587.92,41.03,0000 0000 0000 0000 000000
2018-04-08 12:26:40,0.08,7.39,0.00,28.98,32.08,35.13,13.72,48.34,1022.97,2001.00,1511.46,1685.81,1938.74,599.71,587.70,41.08,0000 0000 0000 0000 000000
2018-04-08 12:31:41,0.09,7.40,0.00,28.95,32.06,35.11,13.67,48.30,1022.96,2001.02,1510.83,1685.08,1938.03,599.65,587.67,41.13,0000 0000 0000 0000 000000
2018-04-08 12:36:43,0.07,7.40,0.00,28.91,32.04,35.07,13.73,48.32,1022.96,2001.04,1510.06,1684.97,1937.57,600.06,587.94,41.18,0000 0000 0000 0000 000000
2018-04-08 12:41:44,0.13,7.40,0.00,28.88,32.02,35.03,13.77,48.36,1022.96,2001.22,1509.46,1684.33,1937.02,600.27,588.17,41.23,0000 0000 0000 0000 000000
2018-04-08 12:46:46,0.08,7.41,0.00,28.87,32.00,35.03,13.75,48.32,1022.96,2001.53,1508.92,1684.00,1936.59,600.05,588.09,41.28,0000 0000 0000 0000 000000
2018-04-08 12:51:47,0.13,7.42,0.00,28.84,31.98,35.01,13.69,48.29,1022.96,2001.68,1508.10,1683.52,1936.01,599.74,587.89,41.33,0000 0000 0000 0000 000000
2018-04-08 12:56:48,0.13,7.42,0.00,28.81,31.96,34.97,13.76,48.27,1022.96,2001.89,1507.53,1683.02,1935.46,600.14,588.41,41.38,0000 0000 0000 0000 000000